Location: Bo?a Wola
(50.4192°N, 19.7966°E)
Time: 21:00:31
(UTC+00:00)

Cosmos 1455 Rocket - Pass Details

Date: 25 September 2024
Orbit: 601 x 623 km, 82.5° (Epoch: 13 October)

Event Time Altitude Azimuth Distance (km) Brightness Sun altitude
Exits shadow 00:32:50 13° 352° (N) 1,774 5.8 -34.4°
Drops below altitude 10° 00:33:24 10° 355° (N) 1,979 6.1 -34.3°
Sets 00:35:48 0° 4° (N) 2,892 7.2 -34.1°
